CQ0XPA-11 Weather Reports


time (UTC)temp
C
wind
direction
speed
KPH
gust
KPH
rain 1hr
cm
rain 24hr
cm
rain mn
cm
humidity
%
barometer
mb
20180818042901 15 112 0.0 0.0 0.00 0.00 0.00 99 1009.4
20180818042659 15 112 0.0 0.0 0.00 0.00 0.00 99 1009.4
20180818042457 15 112 0.0 0.0 0.00 0.00 0.00 99 1009.5
20180818042053 15 112 0.0 0.0 0.00 0.00 0.00 99 1009.5
20180818041850 15 0 0.0 0.0 0.00 0.00 0.00 99 1009.5
20180818041649 15 337 0.0 0.0 0.00 0.00 0.00 98 1009.4
20180818041446 15 337 0.0 0.0 0.00 0.00 0.00 98 1009.4
20180818041245 15 337 0.0 0.0 0.00 0.00 0.00 98 1009.3
20180818041042 15 337 0.0 0.0 0.00 0.00 0.00 98 1009.5
20180818040841 15 337 0.0 0.0 0.00 0.00 0.00 99 1009.4
20180818040638 15 337 0.0 0.0 0.00 0.00 0.00 98 1009.5
20180818040436 15 270 0.0 0.0 0.00 0.00 0.00 98 1009.4
20180818040234 15 270 0.0 0.0 0.00 0.00 0.00 98 1009.4
20180818040032 15 270 0.0 0.0 0.00 0.00 0.00 98 1009.5
20180818035830 15 270 0.0 0.0 0.00 0.00 0.00 98 1009.5
20180818035628 15 270 0.0 0.0 0.00 0.00 0.00 98 1009.5
20180818035426 15 270 0.0 0.0 0.00 0.00 0.00 98 1009.5
20180818035224 15 270 0.0 0.0 0.00 0.00 0.00 98 1009.5
20180818035022 15 270 0.0 0.0 0.00 0.00 0.00 98 1009.5
20180818034820 15 270 0.0 0.0 0.00 0.00 0.00 99 1009.5
20180818034208 15 270 0.0 0.0 0.00 0.00 0.00 98 1009.5
20180818034007 15 90 0.0 0.0 0.00 0.00 0.00 98 1009.6
20180818033804 15 180 0.0 0.0 0.00 0.00 0.00 98 1009.6
20180818033602 15 180 0.0 0.0 0.00 0.00 0.00 99 1009.4
20180818033400 15 180 0.0 0.0 0.00 0.00 0.00 98 1009.4
20180818033158 15 180 0.0 0.0 0.00 0.00 0.00 98 1009.4
20180818032956 15 180 0.0 0.0 0.00 0.00 0.00 98 1009.4
20180818032552 15 180 0.0 0.0 0.00 0.00 0.00 97 1009.3
20180818032350 15 180 0.0 0.0 0.00 0.00 0.00 98 1009.4
20180818032148 15 180 0.0 0.0 0.00 0.00 0.00 97 1009.4
20180818031946 15 180 0.0 0.0 0.00 0.00 0.00 97 1009.4
20180818031542 15 180 0.0 0.0 0.00 0.00 0.00 97 1009.4
20180818031339 15 180 0.0 0.0 0.00 0.00 0.00 96 1009.4
20180818031139 15 180 0.0 0.0 0.00 0.00 0.00 97 1009.5
20180818030935 15 180 0.0 0.0 0.00 0.00 0.00 97 1009.4
20180818030734 15 180 0.0 0.0 0.00 0.00 0.00 97 1009.4
20180818030531 15 180 0.0 1.6 0.00 0.00 0.00 96 1009.4
20180818030329 15 180 0.0 1.6 0.00 0.00 0.00 96 1009.3
20180818030127 15 180 0.0 0.0 0.00 0.00 0.00 96 1009.4
20180818025925 15 180 0.0 0.0 0.00 0.00 0.00 96 1009.4
20180818025723 15 180 0.0 0.0 0.00 0.00 0.00 96 1009.5
20180818025521 15 180 0.0 0.0 0.00 0.00 0.00 96 1009.4
20180818025319 15 180 0.0 0.0 0.00 0.00 0.00 96 1009.4
20180818025117 15 270 0.0 0.0 0.00 0.00 0.00 95 1009.4
20180818024914 15 270 0.0 0.0 0.00 0.00 0.00 96 1009.5
20180818024713 15 270 0.0 0.0 0.00 0.00 0.00 95 1009.3
20180818024510 15 112 0.0 0.0 0.00 0.00 0.00 96 1009.4
20180818024309 15 112 0.0 0.0 0.00 0.00 0.00 95 1009.3
20180818024106 15 337 0.0 0.0 0.00 0.00 0.00 95 1009.3
20180818023905 15 337 0.0 0.0 0.00 0.00 0.00 95 1009.4
20180818023702 15 337 0.0 0.0 0.00 0.00 0.00 95 1009.3
20180818023500 16 270 0.0 0.0 0.00 0.00 0.00 95 1009.3
20180818023258 16 270 0.0 0.0 0.00 0.00 0.00 94 1009.3
20180818023056 16 270 0.0 0.0 0.00 0.00 0.00 94 1009.4
20180818022854 16 270 0.0 0.0 0.00 0.00 0.00 94 1009.3
20180818022652 16 270 0.0 0.0 0.00 0.00 0.00 94 1009.3
20180818022450 16 270 0.0 0.0 0.00 0.00 0.00 94 1009.4
20180818022248 16 270 0.0 0.0 0.00 0.00 0.00 93 1009.3
20180818022045 16 270 0.0 0.0 0.00 0.00 0.00 93 1009.3
20180818021844 16 270 0.0 0.0 0.00 0.00 0.00 93 1009.3
20180818021641 16 270 0.0 0.0 0.00 0.00 0.00 93 1009.3
20180818021440 16 337 0.0 0.0 0.00 0.00 0.00 93 1009.3
20180818021237 16 337 0.0 0.0 0.00 0.00 0.00 93 1009.2
20180818021036 16 337 0.0 0.0 0.00 0.00 0.00 93 1009.2
20180818020833 16 337 0.0 0.0 0.00 0.00 0.00 92 1009.2
20180818020631 16 337 0.0 0.0 0.00 0.00 0.00 93 1009.3
20180818020429 16 337 0.0 0.0 0.00 0.00 0.00 92 1009.4
20180818020227 16 337 0.0 0.0 0.00 0.00 0.00 92 1009.4
20180818020025 16 337 0.0 0.0 0.00 0.00 0.00 92 1009.4
20180818015823 16 337 0.0 0.0 0.00 0.00 0.00 92 1009.4
20180818015621 16 337 0.0 0.0 0.00 0.00 0.00 92 1009.4
20180818015419 16 337 0.0 0.0 0.00 0.00 0.00 91 1009.3
20180818015216 16 337 0.0 0.0 0.00 0.00 0.00 91 1009.4
20180818015015 16 337 0.0 0.0 0.00 0.00 0.00 91 1009.4
20180818014812 16 337 0.0 0.0 0.00 0.00 0.00 90 1009.3
20180818014611 16 337 0.0 0.0 0.00 0.00 0.00 91 1009.4
20180818014408 17 337 0.0 0.0 0.00 0.00 0.00 91 1009.5
20180818014207 17 337 0.0 0.0 0.00 0.00 0.00 90 1009.5
20180818014004 17 337 0.0 0.0 0.00 0.00 0.00 91 1009.4
20180818013802 17 337 0.0 0.0 0.00 0.00 0.00 90 1009.5
20180818013600 17 337 0.0 0.0 0.00 0.00 0.00 90 1009.6
20180818013358 17 337 0.0 0.0 0.00 0.00 0.00 90 1009.5
20180818013156 17 270 0.0 0.0 0.00 0.00 0.00 90 1009.5
20180818012954 17 270 0.0 0.0 0.00 0.00 0.00 90 1009.4
20180818012752 17 112 0.0 0.0 0.00 0.00 0.00 89 1009.4
20180818012550 17 112 0.0 0.0 0.00 0.00 0.00 88 1009.4
20180818012347 17 270 0.0 0.0 0.00 0.00 0.00 88 1009.4
20180818012146 17 270 0.0 0.0 0.00 0.00 0.00 88 1009.4
20180818011943 17 270 0.0 0.0 0.00 0.00 0.00 88 1009.4
20180818011742 17 270 0.0 0.0 0.00 0.00 0.00 87 1009.4
20180818011539 17 270 0.0 0.0 0.00 0.00 0.00 88 1009.4
20180818011338 17 270 0.0 0.0 0.00 0.00 0.00 86 1009.5
20180818010933 17 270 0.0 0.0 0.00 0.00 0.00 87 1009.4
20180818010731 17 270 0.0 0.0 0.00 0.00 0.00 86 1009.5
20180818010529 18 270 0.0 0.0 0.00 0.00 0.00 86 1009.5
20180818010327 18 270 0.0 0.0 0.00 0.00 0.00 86 1009.5
20180818010125 18 270 0.0 0.0 0.00 0.00 0.00 85 1009.5
20180818005923 18 270 0.0 0.0 0.00 0.00 0.00 85 1009.5
20180818005721 18 270 0.0 0.0 0.00 0.00 0.00 85 1009.5
20180818005519 18 270 0.0 0.0 0.00 0.00 0.00 85 1009.5
20180818005317 18 270 0.0 0.0 0.00 0.00 0.00 85 1009.5
20180818005114 18 270 0.0 0.0 0.00 0.00 0.00 84 1009.5
20180818004913 18 270 0.0 0.0 0.00 0.00 0.00 85 1009.6
20180818004710 18 270 0.0 0.0 0.00 0.00 0.00 84 1009.5
20180818004509 18 270 0.0 0.0 0.00 0.00 0.00 85 1009.7
20180818004306 18 270 0.0 0.0 0.00 0.00 0.00 84 1009.6
20180818004105 18 270 0.0 0.0 0.00 0.00 0.00 84 1009.6
20180818003902 18 270 0.0 0.0 0.00 0.00 0.00 84 1009.7
20180818003700 18 270 0.0 0.0 0.00 0.00 0.00 84 1009.6
20180818003458 18 270 0.0 0.0 0.00 0.00 0.00 84 1009.6
20180818003256 18 270 0.0 0.0 0.00 0.00 0.00 83 1009.6
20180818003054 18 270 0.0 0.0 0.00 0.00 0.00 83 1009.7
20180818002852 18 270 0.0 0.0 0.00 0.00 0.00 83 1009.6
20180818002650 18 270 0.0 0.0 0.00 0.00 0.00 83 1009.7
20180818002448 18 270 0.0 0.0 0.00 0.00 0.00 83 1009.8
20180818002245 18 270 0.0 0.0 0.00 0.00 0.00 83 1009.8
20180818002044 18 270 0.0 0.0 0.00 0.00 0.00 83 1009.7
20180818001841 18 270 0.0 0.0 0.00 0.00 0.00 82 1009.9
20180818001640 18 270 0.0 0.0 0.00 0.00 0.00 82 1009.7
20180818001437 18 270 0.0 0.0 0.00 0.00 0.00 82 1009.8
20180818001236 18 270 0.0 0.0 0.00 0.00 0.00 83 1009.8
20180818001033 18 270 0.0 0.0 0.00 0.00 0.00 82 1009.8
20180818000831 19 112 0.0 0.0 0.00 0.00 0.00 82 1009.8
20180818000629 19 112 0.0 0.0 0.00 0.00 0.00 82 1009.8
20180818000427 19 112 0.0 0.0 0.00 0.00 0.00 82 1009.8
20180818000225 19 112 0.0 0.0 0.00 0.00 0.00 82 1009.8
20180818000023 19 112 0.0 0.0 0.00 0.00 0.00 82 1009.9
20180817235821 19 112 0.0 0.0 0.00 0.00 0.00 82 1009.9
20180817235619 19 112 0.0 0.0 0.00 0.00 0.00 81 1009.9
20180817235417 19 112 0.0 0.0 0.00 0.00 0.00 82 1009.9
20180817235215 19 112 0.0 0.0 0.00 0.00 0.00 81 1009.8
20180817235012 19 135 0.0 0.0 0.00 0.00 0.00 81 1009.8
20180817234811 19 135 0.0 0.0 0.00 0.00 0.00 81 1009.7
20180817234608 19 135 0.0 0.0 0.00 0.00 0.00 81 1009.8
20180817234407 19 135 0.0 0.0 0.00 0.00 0.00 81 1009.8
20180817234204 19 135 0.0 0.0 0.00 0.00 0.00 81 1009.8
20180817234002 19 135 0.0 0.0 0.00 0.00 0.00 81 1009.7
20180817233800 19 135 0.0 0.0 0.00 0.00 0.00 81 1009.8
20180817233356 19 135 0.0 0.0 0.00 0.00 0.00 80 1009.8
20180817233154 19 135 0.0 0.0 0.00 0.00 0.00 80 1009.8
20180817232952 20 135 0.0 0.0 0.00 0.00 0.00 80 1009.8
20180817232750 20 135 0.0 0.0 0.00 0.00 0.00 80 1009.8
20180817232547 20 135 0.0 0.0 0.00 0.00 0.00 80 1009.8
20180817232346 20 135 0.0 0.0 0.00 0.00 0.00 80 1009.9
20180817232143 20 135 0.0 0.0 0.00 0.00 0.00 80 1009.8
20180817231942 20 135 0.0 0.0 0.00 0.00 0.00 80 1009.8
20180817231739 20 135 0.0 0.0 0.00 0.00 0.00 80 1009.8
20180817231538 20 135 0.0 0.0 0.00 0.00 0.00 80 1009.9
20180817231335 20 135 0.0 0.0 0.00 0.00 0.00 80 1009.8
20180817230527 20 135 0.0 0.0 0.00 0.00 0.00 80 1009.8
20180817224910 20 135 0.0 1.6 0.00 0.00 0.00 80 1009.9
20180817224506 20 135 0.0 1.6 0.00 0.00 0.00 80 1010.0
20180817224304 20 180 0.0 0.0 0.00 0.00 0.00 80 1010.0
20180817223900 20 180 0.0 0.0 0.00 0.00 0.00 80 1009.9
20180817223658 20 180 0.0 0.0 0.00 0.00 0.00 80 1009.9
20180817223456 20 180 0.0 0.0 0.00 0.00 0.00 79 1009.9
20180817223254 20 180 0.0 0.0 0.00 0.00 0.00 79 1010.0
20180817223052 20 180 0.0 0.0 0.00 0.00 0.00 79 1010.0
20180817222849 20 180 0.0 0.0 0.00 0.00 0.00 79 1009.9
20180817222648 20 180 0.0 0.0 0.00 0.00 0.00 79 1009.9
20180817222244 20 180 0.0 0.0 0.00 0.00 0.00 78 1010.0
20180817222041 20 180 0.0 0.0 0.00 0.00 0.00 78 1009.9
20180817221840 20 180 0.0 0.0 0.00 0.00 0.00 78 1009.9
20180817221637 20 180 0.0 0.0 0.00 0.00 0.00 78 1010.0
20180817221435 20 180 0.0 0.0 0.00 0.00 0.00 78 1010.0
20180817221233 20 180 0.0 1.6 0.00 0.00 0.00 78 1010.0
20180817221031 20 180 0.0 1.6 0.00 0.00 0.00 78 1010.0
20180817220829 20 180 1.6 1.6 0.00 0.00 0.00 78 1010.1
20180817220627 20 180 0.0 0.0 0.00 0.00 0.00 78 1010.0
20180817220425 20 180 0.0 0.0 0.00 0.00 0.00 78 1010.0
20180817220223 20 180 0.0 0.0 0.00 0.00 0.00 78 1009.9
20180817220021 20 180 0.0 0.0 0.00 0.00 0.00 77 1009.9
20180817215819 20 180 0.0 0.0 0.00 0.00 0.00 77 1009.9
20180817215616 21 180 0.0 0.0 0.00 0.00 0.00 77 1009.8
20180817215415 21 180 0.0 0.0 0.00 0.00 0.00 76 1009.9
20180817215212 21 180 0.0 0.0 0.00 0.00 0.00 76 1009.8
20180817215011 21 180 0.0 0.0 0.00 0.00 0.00 75 1009.8
20180817214808 21 180 0.0 0.0 0.00 0.00 0.00 75 1009.8
20180817214606 21 180 0.0 1.6 0.00 0.00 0.00 74 1009.8
20180817214404 21 180 0.0 1.6 0.00 0.00 0.00 74 1009.8
20180817214202 21 180 0.0 0.0 0.00 0.00 0.00 74 1009.8
20180817214000 21 270 0.0 1.6 0.00 0.00 0.00 74 1009.8
20180817213758 22 180 0.0 1.6 0.00 0.00 0.00 73 1009.7
20180817213556 22 270 0.0 1.6 0.00 0.00 0.00 73 1009.9
20180817213354 22 270 0.0 0.0 0.00 0.00 0.00 71 1009.8
20180817213152 22 180 0.0 0.0 0.00 0.00 0.00 70 1009.7
20180817212950 22 270 0.0 1.6 0.00 0.00 0.00 70 1009.7
20180817212747 22 337 0.0 1.6 0.00 0.00 0.00 70 1009.7
20180817212546 22 135 0.0 1.6 0.00 0.00 0.00 69 1009.7
20180817212343 22 337 0.0 1.6 0.00 0.00 0.00 68 1009.8
20180817212142 22 135 1.6 1.6 0.00 0.00 0.00 68 1009.7
20180817211939 23 180 0.0 0.0 0.00 0.00 0.00 67 1009.7
20180817211738 23 180 0.0 1.6 0.00 0.00 0.00 68 1009.6
20180817211535 23 180 0.0 1.6 0.00 0.00 0.00 67 1009.7
20180817211333 23 270 0.0 1.6 0.00 0.00 0.00 67 1009.7
20180817211131 23 270 0.0 1.6 0.00 0.00 0.00 67 1009.7
20180817210929 23 270 0.0 1.6 0.00 0.00 0.00 67 1009.7
20180817210727 23 270 0.0 1.6 0.00 0.00 0.00 67 1009.6
20180817210525 23 112 0.0 1.6 0.00 0.00 0.00 67 1009.6
20180817210323 23 270 0.0 3.2 0.00 0.00 0.00 67 1009.6
20180817210121 23 112 0.0 3.2 0.00 0.00 0.00 67 1009.6
20180817205918 23 270 0.0 3.2 0.00 0.00 0.00 66 1009.5
20180817205717 23 112 0.0 4.8 0.00 0.00 0.00 66 1009.7
20180817205514 23 112 1.6 4.8 0.00 0.00 0.00 67 1009.7
20180817205313 23 0 4.8 4.8 0.00 0.00 0.00 67 1009.6
20180817205110 23 112 1.6 3.2 0.00 0.00 0.00 66 1009.6
20180817204909 23 112 3.2 3.2 0.00 0.00 0.00 66 1009.6
20180817204706 23 270 1.6 3.2 0.00 0.00 0.00 66 1009.6
20180817204504 23 112 3.2 3.2 0.00 0.00 0.00 66 1009.6
20180817204302 23 112 1.6 3.2 0.00 0.00 0.00 66 1009.6
20180817203858 23 112 0.0 4.8 0.00 0.00 0.00 66 1009.5
20180817203656 23 0 4.8 4.8 0.00 0.00 0.00 66 1009.5
20180817203454 23 112 1.6 3.2 0.00 0.00 0.00 66 1009.4
20180817203252 23 270 0.0 4.8 0.00 0.00 0.00 66 1009.4
20180817203049 23 112 3.2 4.8 0.00 0.00 0.00 66 1009.4
20180817202848 24 112 1.6 3.2 0.00 0.00 0.00 65 1009.4
20180817202645 24 270 1.6 3.2 0.00 0.00 0.00 66 1009.3
20180817202444 24 112 0.0 3.2 0.00 0.00 0.00 65 1009.4
20180817202241 24 270 0.0 4.8 0.00 0.00 0.00 66 1009.4
20180817201630 24 112 0.0 4.8 0.00 0.00 0.00 65 1009.4
20180817201428 24 348 4.8 6.4 0.00 0.00 0.00 65 1009.3
20180817201226 24 270 0.0 6.4 0.00 0.00 0.00 65 1009.4
20180817201024 24 112 0.0 6.4 0.00 0.00 0.00 64 1009.2
20180817200822 24 0 3.2 6.4 0.00 0.00 0.00 64 1009.3
20180817200620 24 270 0.0 6.4 0.00 0.00 0.00 64 1009.2
20180817200418 24 0 6.4 6.4 0.00 0.00 0.00 64 1009.2
20180817200215 25 0 4.8 4.8 0.00 0.00 0.00 64 1009.2
20180817200014 25 112 0.0 3.2 0.00 0.00 0.00 64 1009.3
20180817195811 25 270 1.6 3.2 0.00 0.00 0.00 64 1009.2
20180817195610 25 0 0.0 4.8 0.00 0.00 0.00 64 1009.2
20180817195407 25 112 0.0 6.4 0.00 0.00 0.00 64 1009.1
20180817195206 25 112 3.2 6.4 0.00 0.00 0.00 64 1009.1
20180817195003 25 0 1.6 6.4 0.00 0.00 0.00 63 1009.1
20180817194801 25 56 6.4 6.4 0.00 0.00 0.00 63 1009.1
20180817194354 25 270 3.2 6.4 0.00 0.00 0.00 62 1009.0
20180817194152 25 112 3.2 6.4 0.00 0.00 0.00 63 1009.0
20180817193950 25 112 0.0 1.6 0.00 0.00 0.00 62 1009.0
20180817193748 25 112 0.0 3.2 0.00 0.00 0.00 62 1008.9
20180817193546 25 0 0.0 3.2 0.00 0.00 0.00 62 1008.9
20180817193344 26 112 1.6 4.8 0.00 0.00 0.00 62 1008.9
20180817193142 26 0 0.0 4.8 0.00 0.00 0.00 61 1008.8
20180817192939 26 270 1.6 3.2 0.00 0.00 0.00 61 1008.9
20180817192738 26 112 0.0 3.2 0.00 0.00 0.00 61 1008.9
20180817192334 26 112 3.2 6.4 0.00 0.00 0.00 61 1008.9
20180817192131 26 303 0.0 3.2 0.00 0.00 0.00 60 1008.8
20180817191930 27 0 0.0 3.2 0.00 0.00 0.00 61 1008.9
20180817191727 27 270 1.6 3.2 0.00 0.00 0.00 60 1008.9
20180817191525 27 112 0.0 4.8 0.00 0.00 0.00 60 1008.8
20180817191323 27 112 0.0 4.8 0.00 0.00 0.00 60 1008.8
20180817191121 27 112 3.2 4.8 0.00 0.00 0.00 59 1008.8
20180817190919 27 0 3.2 4.8 0.00 0.00 0.00 59 1008.8
20180817190717 27 135 1.6 4.8 0.00 0.00 0.00 59 1008.7
20180817190515 27 0 3.2 4.8 0.00 0.00 0.00 59 1008.7
20180817190313 27 112 1.6 4.8 0.00 0.00 0.00 60 1008.7
20180817190110 27 22 3.2 3.2 0.00 0.00 0.00 59 1008.7
20180817185909 27 270 1.6 4.8 0.00 0.00 0.00 59 1008.7
20180817185706 28 112 0.0 4.8 0.00 0.00 0.00 59 1008.6
20180817185505 28 270 0.0 0.0 0.00 0.00 0.00 60 1008.6
20180817185302 28 270 0.0 3.2 0.00 0.00 0.00 59 1008.7
20180817185101 28 112 0.0 3.2 0.00 0.00 0.00 59 1008.5
20180817184858 28 112 0.0 3.2 0.00 0.00 0.00 59 1008.6
20180817184656 28 45 3.2 4.8 0.00 0.00 0.00 59 1008.7
20180817184454 28 112 3.2 6.4 0.00 0.00 0.00 58 1008.6
20180817184050 28 0 6.4 6.4 0.00 0.00 0.00 58 1008.6
20180817183848 28 0 4.8 6.4 0.00 0.00 0.00 58 1008.5
20180817183646 28 112 0.0 4.8 0.00 0.00 0.00 58 1008.6
20180817183444 29 112 4.8 4.8 0.00 0.00 0.00 58 1008.5
20180817183241 29 0 0.0 6.4 0.00 0.00 0.00 57 1008.5
20180817183040 29 112 1.6 6.4 0.00 0.00 0.00 57 1008.4
20180817182837 30 270 1.6 8.0 0.00 0.00 0.00 56 1008.5
20180817182636 30 22 4.8 8.0 0.00 0.00 0.00 56 1008.5
20180817182232 30 112 1.6 8.0 0.00 0.00 0.00 56 1008.3
20180817182029 30 112 4.8 8.0 0.00 0.00 0.00 56 1008.4
20180817181827 30 0 4.8 6.4 0.00 0.00 0.00 57 1008.5
20180817181420 30 0 1.6 4.8 0.00 0.00 0.00 56 1008.5
20180817181218 30 0 1.6 4.8 0.00 0.00 0.00 56 1008.5
20180817181016 30 0 1.6 4.8 0.00 0.00 0.00 56 1008.4
20180817180814 30 0 1.6 6.4 0.00 0.00 0.00 56 1008.5
20180817180612 30 112 4.8 6.4 0.00 0.00 0.00 56 1008.4
20180817180409 30 112 1.6 6.4 0.00 0.00 0.00 56 1008.4
20180817180208 30 112 1.6 6.4 0.00 0.00 0.00 56 1008.4
20180817180005 30 112 1.6 6.4 0.00 0.00 0.00 56 1008.4
20180817175804 30 112 6.4 6.4 0.00 0.00 0.00 56 1008.4
20180817175601 30 112 0.0 6.4 0.00 0.00 0.00 57 1008.4
20180817175400 30 0 4.8 6.4 0.00 0.00 0.00 56 1008.4
20180817175157 30 112 1.6 3.2 0.00 0.00 0.00 56 1008.4
20180817174955 30 0 1.6 4.8 0.00 0.00 0.00 57 1008.4
20180817174753 30 0 3.2 4.8 0.00 0.00 0.00 57 1008.3
20180817174553 30 315 3.2 4.8 0.00 0.00 0.00 56 1008.4
20180817174147 30 135 3.2 9.7 0.00 0.00 0.00 56 1008.4
20180817173945 30 0 8.0 8.0 0.00 0.00 0.00 56 1008.4
20180817173743 30 112 1.6 8.0 0.00 0.00 0.00 56 1008.4
20180817173541 30 0 8.0 8.0 0.00 0.00 0.00 56 1008.3
20180817173339 30 112 4.8 6.4 0.00 0.00 0.00 56 1008.3
20180817172935 30 0 6.4 11.3 0.00 0.00 0.00 55 1008.4
20180817172732 31 112 4.8 11.3 0.00 0.00 0.00 55 1008.3
20180817172531 31 112 4.8 9.7 0.00 0.00 0.00 55 1008.5
20180817172328 31 0 4.8 9.7 0.00 0.00 0.00 56 1008.4
20180817172127 31 0 8.0 9.7 0.00 0.00 0.00 56 1008.4
20180817171924 31 0 4.8 8.0 0.00 0.00 0.00 56 1008.5
20180817171722 31 112 4.8 8.0 0.00 0.00 0.00 56 1008.5
20180817171520 31 112 4.8 11.3 0.00 0.00 0.00 56 1008.4
20180817171318 31 112 0.0 11.3 0.00 0.00 0.00 57 1008.5
20180817171116 31 90 3.2 9.7 0.00 0.00 0.00 56 1008.4
20180817170914 31 112 1.6 8.0 0.00 0.00 0.00 56 1008.4
20180817170712 31 0 8.0 8.0 0.00 0.00 0.00 56 1008.4
20180817170510 31 112 3.2 6.4 0.00 0.00 0.00 56 1008.5
20180817170307 31 0 4.8 9.7 0.00 0.00 0.00 56 1008.4
20180817170106 31 112 1.6 9.7 0.00 0.00 0.00 57 1008.3
20180817165903 31 112 4.8 9.7 0.00 0.00 0.00 56 1008.4
20180817165702 31 112 3.2 4.8 0.00 0.00 0.00 57 1008.4
20180817165459 31 112 3.2 6.4 0.00 0.00 0.00 57 1008.4
20180817165257 31 67 3.2 6.4 0.00 0.00 0.00 57 1008.4
20180817165055 31 0 4.8 4.8 0.00 0.00 0.00 56 1008.4
20180817164853 31 0 1.6 8.0 0.00 0.00 0.00 57 1008.4
20180817164651 31 112 3.2 8.0 0.00 0.00 0.00 56 1008.4
20180817164449 31 337 1.6 4.8 0.00 0.00 0.00 57 1008.3
20180817164247 31 270 4.8 9.7 0.00 0.00 0.00 57 1008.3
20180817164045 31 270 1.6 11.3 0.00 0.00 0.00 57 1008.3
20180817163843 30 112 6.4 11.3 0.00 0.00 0.00 57 1008.2
20180817163641 30 112 9.7 9.7 0.00 0.00 0.00 58 1008.2
20180817163438 30 112 1.6 9.7 0.00 0.00 0.00 59 1008.2
20180817163237 30 112 4.8 9.7 0.00 0.00 0.00 60 1008.2
20180817163034 30 270 1.6 6.4 0.00 0.00 0.00 59 1008.3
20180817162833 30 303 3.2 11.3 0.00 0.00 0.00 58 1008.4
20180817162630 30 112 8.0 11.3 0.00 0.00 0.00 58 1008.3
20180817162429 30 112 1.6 11.3 0.00 0.00 0.00 59 1008.4
20180817162226 30 112 4.8 6.4 0.00 0.00 0.00 59 1008.3
20180817162024 30 270 4.8 6.4 0.00 0.00 0.00 59 1008.3
20180817161822 30 112 4.8 6.4 0.00 0.00 0.00 58 1008.4
20180817161620 30 112 1.6 6.4 0.00 0.00 0.00 59 1008.5
20180817161418 30 337 3.2 8.0 0.00 0.00 0.00 59 1008.5
20180817161216 30 112 4.8 8.0 0.00 0.00 0.00 59 1008.5
20180817161014 30 337 4.8 9.7 0.00 0.00 0.00 59 1008.4
20180817160812 30 303 6.4 9.7 0.00 0.00 0.00 59 1008.4
20180817160609 30 303 8.0 9.7 0.00 0.00 0.00 58 1008.5
20180817160408 30 112 4.8 9.7 0.00 0.00 0.00 57 1008.5
20180817160205 30 202 4.8 9.7 0.00 0.00 0.00 56 1008.6
20180817160004 31 270 6.4 9.7 0.00 0.00 0.00 54 1008.5
20180817155801 31 270 6.4 8.0 0.00 0.00 0.00 55 1008.4
20180817155600 31 270 4.8 8.0 0.00 0.00 0.00 54 1008.4
20180817155357 31 112 0.0 6.4 0.00 0.00 0.00 54 1008.4
20180817155155 31 270 4.8 6.4 0.00 0.00 0.00 54 1008.4
20180817154953 31 337 3.2 6.4 0.00 0.00 0.00 54 1008.5
20180817154751 31 303 3.2 6.4 0.00 0.00 0.00 53 1008.5
20180817154549 31 270 3.2 6.4 0.00 0.00 0.00 54 1008.5
20180817154145 31 270 1.6 3.2 0.00 0.00 0.00 55 1008.5
20180817153943 31 270 1.6 8.0 0.00 0.00 0.00 55 1008.5
20180817153539 31 270 3.2 8.0 0.00 0.00 0.00 53 1008.6
20180817153336 31 303 1.6 8.0 0.00 0.00 0.00 55 1008.6
20180817153135 31 270 1.6 8.0 0.00 0.00 0.00 55 1008.7
20180817152932 31 337 4.8 6.4 0.00 0.00 0.00 54 1008.7
20180817152731 31 303 3.2 4.8 0.00 0.00 0.00 55 1008.7
20180817152528 31 112 1.6 8.0 0.00 0.00 0.00 55 1008.7
20180817152327 31 270 4.8 8.0 0.00 0.00 0.00 55 1008.7
20180817152124 31 303 6.4 6.4 0.00 0.00 0.00 54 1008.8
20180817151922 31 337 4.8 6.4 0.00 0.00 0.00 54 1008.8
20180817151720 31 303 3.2 6.4 0.00 0.00 0.00 55 1008.8
20180817151518 31 337 4.8 9.7 0.00 0.00 0.00 54 1008.8
20180817151114 31 270 4.8 6.4 0.00 0.00 0.00 55 1008.9
20180817145659 31 270 1.6 8.0 0.00 0.00 0.00 57 1009.1
20180817145457 31 270 3.2 6.4 0.00 0.00 0.00 57 1009.1
20180817145255 31 337 4.8 9.7 0.00 0.00 0.00 58 1009.1
20180817145053 31 303 3.2 9.7 0.00 0.00 0.00 56 1009.1
20180817144851 31 112 3.2 4.8 0.00 0.00 0.00 57 1009.1
20180817144649 31 270 1.6 4.8 0.00 0.00 0.00 58 1009.2
20180817144447 31 270 3.2 6.4 0.00 0.00 0.00 57 1009.1
20180817144245 31 303 3.2 6.4 0.00 0.00 0.00 57 1009.4
20180817144042 31 337 3.2 6.4 0.00 0.00 0.00 56 1009.2
20180817143841 31 270 3.2 8.0 0.00 0.00 0.00 56 1009.3
20180817143638 31 270 0.0 8.0 0.00 0.00 0.00 58 1009.4
20180817143437 31 303 4.8 8.0 0.00 0.00 0.00 58 1009.4
20180817143234 31 337 1.6 8.0 0.00 0.00 0.00 56 1009.4
20180817143033 31 112 4.8 6.4 0.00 0.00 0.00 58 1009.4
20180817142830 30 270 4.8 4.8 0.00 0.00 0.00 58 1009.4
20180817142628 30 0 3.2 6.4 0.00 0.00 0.00 58 1009.5
20180817142426 30 270 4.8 8.0 0.00 0.00 0.00 56 1009.5
20180817142224 30 337 3.2 8.0 0.00 0.00 0.00 56 1009.5
20180817142022 30 303 6.4 8.0 0.00 0.00 0.00 57 1009.6
20180817141820 30 337 4.8 8.0 0.00 0.00 0.00 56 1009.5
20180817141618 30 112 1.6 6.4 0.00 0.00 0.00 57 1009.6
20180817141416 31 270 3.2 6.4 0.00 0.00 0.00 57 1009.6
20180817141214 31 270 1.6 9.7 0.00 0.00 0.00 57 1009.7
20180817141012 31 270 4.8 9.7 0.00 0.00 0.00 56 1009.8
20180817140809 31 0 1.6 8.0 0.00 0.00 0.00 55 1009.7
20180817140608 31 270 1.6 6.4 0.00 0.00 0.00 56 1009.7
20180817140405 31 270 6.4 6.4 0.00 0.00 0.00 54 1009.8
20180817140204 31 303 3.2 6.4 0.00 0.00 0.00 56 1009.8
20180817140001 31 270 4.8 6.4 0.00 0.00 0.00 57 1009.8
20180817135800 31 337 3.2 4.8 0.00 0.00 0.00 57 1009.7
20180817135557 31 112 0.0 8.0 0.00 0.00 0.00 58 1009.8
20180817135355 31 112 1.6 8.0 0.00 0.00 0.00 56 1009.8
20180817135153 31 270 8.0 8.0 0.00 0.00 0.00 57 1009.7
20180817134951 31 112 3.2 4.8 0.00 0.00 0.00 58 1009.8
20180817134749 31 337 4.8 4.8 0.00 0.00 0.00 57 1009.9
20180817134547 30 270 1.6 6.4 0.00 0.00 0.00 58 1009.9
20180817134345 30 112 1.6 6.4 0.00 0.00 0.00 58 1009.8
20180817134143 30 270 3.2 6.4 0.00 0.00 0.00 57 1009.9
20180817133942 31 270 4.8 8.0 0.00 0.00 0.00 56 1010.0
20180817133739 31 337 3.2 8.0 0.00 0.00 0.00 58 1009.9
20180817133536 31 270 6.4 6.4 0.00 0.00 0.00 58 1010.0
20180817133336 31 0 3.2 4.8 0.00 0.00 0.00 58 1010.0
20180817133133 30 270 3.2 6.4 0.00 0.00 0.00 57 1010.0
20180817132932 30 270 0.0 6.4 0.00 0.00 0.00 58 1010.1
20180817132729 30 112 6.4 6.4 0.00 0.00 0.00 58 1010.1
20180817132528 30 112 3.2 8.0 0.00 0.00 0.00 58 1010.3
20180817132325 30 112 4.8 8.0 0.00 0.00 0.00 57 1010.2
20180817132124 30 112 3.2 6.4 0.00 0.00 0.00 58 1010.2
20180817131920 30 270 0.0 6.4 0.00 0.00 0.00 58 1010.2
20180817131718 30 0 4.8 6.4 0.00 0.00 0.00 58 1010.3
20180817131516 30 112 4.8 8.0 0.00 0.00 0.00 58 1010.3
20180817131314 30 112 1.6 8.0 0.00 0.00 0.00 59 1010.3
20180817131111 30 0 4.8 11.3 0.00 0.00 0.00 60 1010.3
20180817130910 30 112 1.6 11.3 0.00 0.00 0.00 60 1010.3
20180817130707 30 112 11.3 11.3 0.00 0.00 0.00 58 1010.3
20180817130303 30 0 4.8 4.8 0.00 0.00 0.00 60 1010.5
20180817130102 30 112 0.0 3.2 0.00 0.00 0.00 62 1010.4
20180817125859 29 112 3.2 6.4 0.00 0.00 0.00 62 1010.5
20180817125657 29 0 3.2 6.4 0.00 0.00 0.00 61 1010.5
20180817125455 29 112 4.8 8.0 0.00 0.00 0.00 62 1010.5
20180817125253 29 303 4.8 8.0 0.00 0.00 0.00 61 1010.5
20180817125051 28 112 4.8 8.0 0.00 0.00 0.00 63 1010.5
20180817124849 28 270 1.6 3.2 0.00 0.00 0.00 63 1010.4
20180817124647 28 112 1.6 3.2 0.00 0.00 0.00 63 1010.6
20180817124445 28 112 1.6 9.7 0.00 0.00 0.00 63 1010.5
20180817124242 28 270 3.2 9.7 0.00 0.00 0.00 64 1010.5
20180817124041 28 112 6.4 6.4 0.00 0.00 0.00 63 1010.5
20180817123838 28 303 0.0 4.8 0.00 0.00 0.00 62 1010.5
20180817123637 28 337 4.8 4.8 0.00 0.00 0.00 62 1010.6
20180817123434 28 112 1.6 4.8 0.00 0.00 0.00 64 1010.6
20180817123233 28 112 0.0 4.8 0.00 0.00 0.00 65 1010.6
20180817123030 27 112 3.2 3.2 0.00 0.00 0.00 65 1010.5
20180817122828 27 270 3.2 3.2 0.00 0.00 0.00 66 1010.7
20180817122626 27 112 0.0 4.8 0.00 0.00 0.00 66 1010.6
20180817122424 27 303 3.2 4.8 0.00 0.00 0.00 66 1010.7
20180817122222 27 112 3.2 4.8 0.00 0.00 0.00 66 1010.7
20180817122020 27 112 1.6 4.8 0.00 0.00 0.00 66 1010.7
20180817121818 27 270 1.6 4.8 0.00 0.00 0.00 66 1010.9
20180817121616 27 112 4.8 6.4 0.00 0.00 0.00 67 1010.9
20180817121413 27 303 4.8 6.4 0.00 0.00 0.00 66 1010.8
20180817121212 27 337 3.2 6.4 0.00 0.00 0.00 66 1010.7
20180817121009 27 112 4.8 6.4 0.00 0.00 0.00 65 1010.8
20180817120808 27 270 3.2 6.4 0.00 0.00 0.00 66 1010.9
20180817120605 27 348 4.8 4.8 0.00 0.00 0.00 65 1010.8
20180817120404 27 270 1.6 3.2 0.00 0.00 0.00 66 1010.8
20180817120201 27 303 1.6 9.7 0.00 0.00 0.00 66 1010.9
20180817115959 27 315 4.8 9.7 0.00 0.00 0.00 66 1010.9
20180817115757 27 270 3.2 8.0 0.00 0.00 0.00 65 1010.8
20180817115555 27 112 3.2 8.0 0.00 0.00 0.00 65 1010.9
20180817115353 27 112 1.6 8.0 0.00 0.00 0.00 67 1010.9
20180817115151 27 0 3.2 6.4 0.00 0.00 0.00 67 1010.9
20180817114949 27 112 3.2 6.4 0.00 0.00 0.00 67 1010.9
20180817114747 27 112 3.2 6.4 0.00 0.00 0.00 68 1011.0
20180817114544 27 112 1.6 8.0 0.00 0.00 0.00 69 1010.9
20180817114343 27 303 4.8 8.0 0.00 0.00 0.00 68 1011.0
20180817114140 27 112 3.2 6.4 0.00 0.00 0.00 69 1011.0
20180817113939 26 112 1.6 6.4 0.00 0.00 0.00 69 1011.0
20180817113736 26 270 1.6 6.4 0.00 0.00 0.00 69 1011.0
20180817113535 26 0 3.2 6.4 0.00 0.00 0.00 69 1011.0
20180817113332 26 303 3.2 8.0 0.00 0.00 0.00 70 1011.1
20180817113131 26 112 3.2 8.0 0.00 0.00 0.00 70 1011.1
20180817112928 26 270 3.2 6.4 0.00 0.00 0.00 70 1011.1
20180817112726 26 337 3.2 6.4 0.00 0.00 0.00 70 1011.2
20180817112322 26 112 4.8 8.0 0.00 0.00 0.00 71 1011.2
20180817112120 26 270 3.2 6.4 0.00 0.00 0.00 72 1011.2
20180817111918 26 112 4.8 4.8 0.00 0.00 0.00 73 1011.2
20180817111716 26 270 4.8 4.8 0.00 0.00 0.00 71 1011.3
20180817111514 25 0 1.6 6.4 0.00 0.00 0.00 72 1011.3
20180817111311 25 270 4.8 6.4 0.00 0.00 0.00 71 1011.2
20180817111110 25 0 4.8 6.4 0.00 0.00 0.00 72 1011.3
20180817110907 25 303 6.4 8.0 0.00 0.00 0.00 71 1011.3
20180817110706 26 303 3.2 8.0 0.00 0.00 0.00 70 1011.4
20180817110503 26 112 4.8 6.4 0.00 0.00 0.00 71 1011.4
20180817110302 26 270 4.8 4.8 0.00 0.00 0.00 71 1011.5
20180817110059 26 112 3.2 8.0 0.00 0.00 0.00 72 1011.4
20180817105650 26 180 6.4 8.0 0.00 0.00 0.00 69 1011.4
20180817105448 26 112 1.6 4.8 0.00 0.00 0.00 73 1011.4
20180817105246 25 112 4.8 6.4 0.00 0.00 0.00 72 1011.4
20180817105044 25 315 6.4 6.4 0.00 0.00 0.00 72 1011.5
20180817104842 25 112 0.0 8.0 0.00 0.00 0.00 73 1011.6
20180817104640 25 112 1.6 8.0 0.00 0.00 0.00 74 1011.5
20180817104437 25 0 3.2 4.8 0.00 0.00 0.00 74 1011.5
20180817104236 25 112 3.2 3.2 0.00 0.00 0.00 74 1011.5
20180817104033 24 337 3.2 3.2 0.00 0.00 0.00 74 1011.3
20180817103832 24 112 1.6 6.4 0.00 0.00 0.00 75 1011.4
20180817103629 24 0 3.2 6.4 0.00 0.00 0.00 74 1011.4
20180817103428 24 303 3.2 3.2 0.00 0.00 0.00 74 1011.4
20180817103225 24 135 0.0 6.4 0.00 0.00 0.00 75 1011.4
20180817103023 24 135 3.2 6.4 0.00 0.00 0.00 74 1011.3
20180817102821 24 90 0.0 4.8 0.00 0.00 0.00 76 1011.3
20180817102619 24 0 0.0 4.8 0.00 0.00 0.00 75 1011.4
20180817102417 24 112 0.0 4.8 0.00 0.00 0.00 76 1011.4
20180817102013 23 270 0.0 4.8 0.00 0.00 0.00 78 1011.5
20180817101811 23 112 0.0 4.8 0.00 0.00 0.00 78 1011.5
20180817101608 23 112 4.8 4.8 0.00 0.00 0.00 77 1011.5
20180817101407 23 112 0.0 3.2 0.00 0.00 0.00 78 1011.5
20180817101204 23 112 3.2 4.8 0.00 0.00 0.00 78 1011.5
20180817101003 23 180 1.6 4.8 0.00 0.00 0.00 79 1011.4
20180817100800 23 112 0.0 4.8 0.00 0.00 0.00 79 1011.5
20180817100559 22 270 1.6 4.8 0.00 0.00 0.00 79 1011.5
20180817100356 22 112 3.2 4.8 0.00 0.00 0.00 79 1011.6
20180817100154 22 112 3.2 3.2 0.00 0.00 0.00 80 1011.5
20180817095952 22 180 0.0 4.8 0.00 0.00 0.00 80 1011.6
20180817095548 22 270 1.6 6.4 0.00 0.00 0.00 80 1011.6
20180817095346 22 112 3.2 6.4 0.00 0.00 0.00 82 1011.5
20180817095144 22 112 0.0 4.8 0.00 0.00 0.00 82 1011.5
20180817094942 22 112 3.2 4.8 0.00 0.00 0.00 82 1011.5
20180817094739 22 112 1.6 6.4 0.00 0.00 0.00 82 1011.5
20180817094538 22 112 0.0 6.4 0.00 0.00 0.00 83 1011.5
20180817094131 21 180 1.6 6.4 0.00 0.00 0.00 83 1011.6
20180817093928 21 270 0.0 6.4 0.00 0.00 0.00 83 1011.5
20180817093727 21 270 0.0 6.4 0.00 0.00 0.00 84 1011.5
20180817093524 21 270 0.0 6.4 0.00 0.00 0.00 84 1011.6
20180817093322 21 0 6.4 6.4 0.00 0.00 0.00 84 1011.6
20180817093120 21 112 3.2 6.4 0.00 0.00 0.00 85 1011.6
20180817092918 21 112 3.2 9.7 0.00 0.00 0.00 85 1011.6
20180817092716 21 303 1.6 9.7 0.00 0.00 0.00 85 1011.6
20180817092514 21 112 6.4 6.4 0.00 0.00 0.00 85 1011.5
20180817092312 21 112 1.6 8.0 0.00 0.00 0.00 86 1011.5
20180817092110 21 0 1.6 8.0 0.00 0.00 0.00 87 1011.6
20180817091907 20 112 0.0 9.7 0.00 0.00 0.00 87 1011.7
20180817091706 20 112 1.6 9.7 0.00 0.00 0.00 87 1011.7
20180817091503 20 315 0.0 8.0 0.00 0.00 0.00 87 1011.7
20180817091302 20 0 3.2 6.4 0.00 0.00 0.00 87 1011.6
20180817091059 20 112 1.6 6.4 0.00 0.00 0.00 87 1011.6
20180817090858 20 270 6.4 6.4 0.00 0.00 0.00 87 1011.7
20180817090655 20 0 0.0 4.8 0.00 0.00 0.00 88 1011.7
20180817090453 20 112 3.2 6.4 0.00 0.00 0.00 88 1011.7
20180817090251 20 303 0.0 6.4 0.00 0.00 0.00 88 1011.7
20180817090049 20 112 1.6 4.8 0.00 0.00 0.00 89 1011.6
20180817085847 20 0 3.2 4.8 0.00 0.00 0.00 89 1011.5
20180817085645 20 270 3.2 4.8 0.00 0.00 0.00 88 1011.6
20180817085443 20 112 1.6 6.4 0.00 0.00 0.00 89 1011.6
20180817085241 20 90 3.2 6.4 0.00 0.00 0.00 90 1011.5
20180817085038 20 112 1.6 6.4 0.00 0.00 0.00 90 1011.5
20180817084837 20 270 0.0 6.4 0.00 0.00 0.00 91 1011.5
20180817084634 19 0 3.2 3.2 0.00 0.00 0.00 92 1011.4
20180817084433 19 112 0.0 6.4 0.00 0.00 0.00 92 1011.5
20180817084230 19 112 1.6 6.4 0.00 0.00 0.00 93 1011.5
20180817084029 19 270 1.6 6.4 0.00 0.00 0.00 92 1011.4
20180817083826 18 112 0.0 8.0 0.00 0.00 0.00 93 1011.2
20180817083624 18 112 6.4 8.0 0.00 0.00 0.00 94 1011.3
20180817083422 18 112 6.4 8.0 0.00 0.00 0.00 94 1011.2
20180817083220 18 112 1.6 8.0 0.00 0.00 0.00 94 1011.3
20180817083018 18 270 1.6 8.0 0.00 0.00 0.00 95 1011.3
20180817082816 18 270 4.8 4.8 0.00 0.00 0.00 95 1011.1
20180817082614 18 0 1.6 6.4 0.00 0.00 0.00 95 1011.1
20180817082412 18 67 0.0 6.4 0.00 0.00 0.00 96 1011.2
20180817082209 18 112 1.6 6.4 0.00 0.00 0.00 96 1011.2
20180817082008 18 22 1.6 6.4 0.00 0.00 0.00 96 1011.1
20180817081805 18 0 1.6 4.8 0.00 0.00 0.00 96 1011.1
20180817081604 18 0 3.2 4.8 0.00 0.00 0.00 97 1011.0
20180817081401 17 112 4.8 4.8 0.00 0.00 0.00 97 1011.0
20180817081200 17 112 1.6 6.4 0.00 0.00 0.00 97 1011.1
20180817080957 17 0 0.0 6.4 0.00 0.00 0.00 97 1011.1
20180817080756 17 112 3.2 6.4 0.00 0.00 0.00 97 1011.1
20180817080553 17 0 4.8 8.0 0.00 0.00 0.00 98 1011.0
20180817080351 17 0 6.4 8.0 0.00 0.00 0.00 98 1011.1
20180817080149 17 112 4.8 8.0 0.00 0.00 0.00 99 1011.1
20180817075947 17 112 4.8 6.4 0.00 0.00 0.00 99 1011.2
20180817075745 17 337 0.0 3.2 0.00 0.00 0.00 100 1011.3
20180817075543 17 180 1.6 3.2 0.00 0.00 0.00 99 1011.3
20180817075340 17 270 1.6 3.2 0.00 0.00 0.00 100 1011.3
20180817075139 17 112 0.0 3.2 0.00 0.00 0.00 100 1011.4
20180817074936 17 236 1.6 4.8 0.00 0.00 0.00 100 1011.3
20180817074735 17 112 0.0 4.8 0.00 0.00 0.00 100 1011.2
20180817074532 17 0 3.2 4.8 0.00 0.00 0.00 100 1011.3
20180817074331 17 157 3.2 3.2 0.00 0.00 0.00 100 1011.4
20180817074128 16 112 3.2 3.2 0.00 0.00 0.00 100 1011.3
20180817073320 16 112 0.0 3.2 0.00 0.00 0.00 100 1011.3
20180817072107 16 270 0.0 1.6 0.00 0.00 0.00 100 1011.1
20180817071906 16 270 0.0 1.6 0.00 0.00 0.00 100 1011.2
20180817071703 16 0 1.6 3.2 0.00 0.00 0.00 100 1011.2
20180817071502 16 270 0.0 3.2 0.00 0.00 0.00 100 1011.2
20180817071259 16 270 1.6 3.2 0.00 0.00 0.00 100 1011.1
20180817071057 16 112 1.6 3.2 0.00 0.00 0.00 100 1011.1
20180817070855 16 270 3.2 3.2 0.00 0.00 0.00 100 1011.2
20180817070653 16 112 1.6 3.2 0.00 0.00 0.00 100 1011.2
20180817070451 16 270 0.0 1.6 0.00 0.00 0.00 100 1011.2
20180817070249 16 270 0.0 3.2 0.00 0.00 0.00 100 1011.1
20180817070047 16 270 0.0 3.2 0.00 0.00 0.00 100 1011.0
20180817065845 16 270 3.2 3.2 0.00 0.00 0.00 100 1010.9
20180817065643 16 0 0.0 3.2 0.00 0.00 0.00 100 1011.1
20180817065441 16 270 0.0 1.6 0.00 0.00 0.00 100 1011.1
20180817065238 16 112 0.0 1.6 0.00 0.00 0.00 100 1011.0
20180817065037 16 270 0.0 3.2 0.00 0.00 0.00 100 1011.0
20180817064834 16 270 0.0 3.2 0.00 0.00 0.00 100 1011.0
20180817064633 16 270 1.6 3.2 0.00 0.00 0.00 100 1010.9
20180817064430 16 270 1.6 1.6 0.00 0.00 0.00 100 1010.8
20180817064228 16 270 0.0 1.6 0.00 0.00 0.00 100 1010.9
20180817064026 16 270 0.0 0.0 0.00 0.00 0.00 100 1010.8
20180817063824 16 270 0.0 3.2 0.00 0.00 0.00 100 1010.8
20180817063622 16 135 0.0 3.2 0.00 0.00 0.00 100 1010.8
20180817063420 16 112 0.0 1.6 0.00 0.00 0.00 100 1010.7
20180817063218 16 270 0.0 1.6 0.00 0.00 0.00 100 1010.6
20180817063016 16 348 0.0 1.6 0.00 0.00 0.00 100 1010.5
20180817062612 16 0 0.0 1.6 0.00 0.00 0.00 100 1010.6
20180817062409 16 0 0.0 1.6 0.00 0.00 0.00 100 1010.6
20180817062208 15 270 1.6 1.6 0.00 0.00 0.00 100 1010.5
20180817062005 15 270 0.0 0.0 0.00 0.00 0.00 100 1010.5
20180817061804 15 270 0.0 0.0 0.00 0.00 0.00 100 1010.5
20180817061601 15 270 0.0 0.0 0.00 0.00 0.00 100 1010.6
20180817061400 15 0 0.0 0.0 0.00 0.00 0.00 100 1010.5
20180817061157 15 270 0.0 0.0 0.00 0.00 0.00 100 1010.5
20180817060955 15 135 0.0 0.0 0.00 0.00 0.00 100 1010.5
20180817060753 15 270 0.0 0.0 0.00 0.00 0.00 100 1010.5
20180817060551 15 112 0.0 1.6 0.00 0.00 0.00 100 1010.4
20180817060349 15 112 0.0 1.6 0.00 0.00 0.00 100 1010.5
20180817060147 15 270 0.0 1.6 0.00 0.00 0.00 100 1010.6
20180817055945 15 270 0.0 3.2 0.00 0.00 0.00 100 1010.6
20180817055743 15 135 0.0 3.2 0.00 0.00 0.00 100 1010.5
20180817055540 15 90 0.0 1.6 0.00 0.00 0.00 100 1010.6
20180817055339 15 270 0.0 1.6 0.00 0.00 0.00 100 1010.5
20180817055136 15 135 0.0 0.0 0.00 0.00 0.00 100 1010.5
20180817054935 15 270 0.0 0.0 0.00 0.00 0.00 100 1010.4
20180817054732 16 67 0.0 3.2 0.00 0.00 0.00 100 1010.4
20180817054531 16 0 0.0 3.2 0.00 0.00 0.00 100 1010.5
20180817054328 16 270 0.0 1.6 0.00 0.00 0.00 100 1010.4
20180817054126 16 0 0.0 0.0 0.00 0.00 0.00 100 1010.4
20180817053924 16 0 0.0 0.0 0.00 0.00 0.00 100 1010.6
20180817053722 16 112 0.0 1.6 0.00 0.00 0.00 100 1010.4
20180817053520 16 270 0.0 1.6 0.00 0.00 0.00 100 1010.5
20180817053318 16 270 0.0 1.6 0.00 0.00 0.00 100 1010.4
20180817053116 16 270 1.6 4.8 0.00 0.00 0.00 100 1010.5
20180817052914 16 135 0.0 4.8 0.00 0.00 0.00 100 1010.6
20180817052712 16 270 0.0 1.6 0.00 0.00 0.00 100 1010.5
20180817052510 16 180 0.0 1.6 0.00 0.00 0.00 100 1010.5
20180817052307 16 135 0.0 3.2 0.00 0.00 0.00 100 1010.4
20180817052106 16 0 0.0 3.2 0.00 0.00 0.00 100 1010.4
20180817051903 16 0 1.6 1.6 0.00 0.00 0.00 100 1010.4
20180817051702 16 270 0.0 1.6 0.00 0.00 0.00 100 1010.5
20180817051459 16 270 1.6 1.6 0.00 0.00 0.00 100 1010.4
20180817051257 16 112 0.0 3.2 0.00 0.00 0.00 100 1010.5
20180817051055 16 0 0.0 3.2 0.00 0.00 0.00 100 1010.6
20180817050853 16 0 3.2 3.2 0.00 0.00 0.00 100 1010.4
20180817050651 16 337 0.0 1.6 0.00 0.00 0.00 100 1010.4
20180817050449 16 337 0.0 1.6 0.00 0.00 0.00 100 1010.3
20180817050045 16 270 0.0 1.6 0.00 0.00 0.00 100 1010.5
20180817045842 16 270 0.0 1.6 0.00 0.00 0.00 100 1010.5
20180817045641 16 112 0.0 1.6 0.00 0.00 0.00 100 1010.3
20180817045438 16 135 1.6 1.6 0.00 0.00 0.00 100 1010.3
20180817045237 16 180 0.0 1.6 0.00 0.00 0.00 100 1010.3
20180817045034 16 270 0.0 3.2 0.00 0.00 0.00 100 1010.2
20180817044833 16 112 0.0 3.2 0.00 0.00 0.00 100 1010.2
20180817044630 16 270 0.0 1.6 0.00 0.00 0.00 100 1010.2
20180817044429 16 112 0.0 1.6 0.00 0.00 0.00 100 1010.1
20180817044024 16 135 0.0 3.2 0.00 0.00 0.00 100 1010.3
20180817043822 16 90 1.6 3.2 0.00 0.00 0.00 100 1010.3
20180817043620 16 180 1.6 3.2 0.00 0.00 0.00 100 1010.2
20180817043418 16 270 0.0 3.2 0.00 0.00 0.00 100 1010.1
20180817043216 16 135 0.0 4.8 0.00 0.00 0.00 100 1010.1
20180817043014 16 0 1.6 4.8 0.00 0.00 0.00 100 1010.1